TimeCDT,TemperatureF,Dew PointF,Humidity,Sea Level PressureIn,VisibilityMPH,Wind Direction,Wind SpeedMPH,Gust SpeedMPH,PrecipitationIn,Events,Conditions,WindDirDegrees,DateUTC
12:15 AM,55.4,46.4,72,30.06,10.0,North,10.4,17.3,N/A,,Overcast,350,2012-10-26 05:15:00
1:35 AM,53.6,46.4,77,30.08,10.0,NNW,12.7,-,N/A,,Overcast,340,2012-10-26 06:35:00
1:55 AM,53.6,44.6,72,30.08,10.0,North,11.5,20.7,N/A,,Overcast,360,2012-10-26 06:55:00
2:15 AM,53.6,44.6,72,30.09,10.0,North,6.9,18.4,N/A,,Overcast,360,2012-10-26 07:15:00
2:35 AM,53.6,44.6,72,30.09,10.0,North,8.1,-,N/A,,Overcast,350,2012-10-26 07:35:00
2:55 AM,53.6,44.6,72,30.09,10.0,North,15.0,-,N/A,,Overcast,350,2012-10-26 07:55:00
3:15 AM,53.6,44.6,72,30.08,10.0,North,11.5,17.3,N/A,,Overcast,360,2012-10-26 08:15:00
3:35 AM,53.6,44.6,72,30.08,10.0,North,8.1,-,N/A,,Overcast,350,2012-10-26 08:35:00
3:55 AM,53.6,44.6,72,30.09,10.0,North,9.2,-,N/A,,Overcast,350,2012-10-26 08:55:00
4:15 AM,51.8,44.6,76,30.09,10.0,NNW,9.2,-,N/A,,Overcast,340,2012-10-26 09:15:00
4:35 AM,51.8,42.8,71,30.10,10.0,North,8.1,-,N/A,,Overcast,360,2012-10-26 09:35:00
4:55 AM,51.8,44.6,76,30.10,10.0,North,11.5,-,N/A,,Overcast,360,2012-10-26 09:55:00
5:15 AM,50.0,44.6,82,30.09,8.0,North,10.4,-,N/A,,Overcast,350,2012-10-26 10:15:00
5:35 AM,50.0,46.4,87,30.11,8.0,NNW,6.9,-,N/A,,Overcast,340,2012-10-26 10:35:00
5:55 AM,48.2,46.4,93,30.12,2.0,North,8.1,16.1,N/A,Rain,Heavy Rain,360,2012-10-26 10:55:00
6:15 AM,48.2,46.4,93,30.13,3.0,North,6.9,-,N/A,Rain,Rain,360,2012-10-26 11:15:00
6:35 AM,48.2,46.4,93,30.15,2.5,WNW,3.5,-,N/A,Rain-Thunderstorm,Thunderstorms and Rain,290,2012-10-26 11:35:00
7:15 AM,48.2,46.4,93,30.14,4.0,North,6.9,-,N/A,Rain-Thunderstorm,Heavy Rain,360,2012-10-26 12:15:00
7:35 AM,48.2,46.4,93,30.15,2.5,North,6.9,-,N/A,Rain-Thunderstorm,Rain,10,2012-10-26 12:35:00
8:15 AM,48.2,48.2,100,30.17,5.0,NNW,8.1,-,N/A,Thunderstorm,Overcast,340,2012-10-26 13:15:00
8:35 AM,48.2,46.4,93,30.18,5.0,North,5.8,-,N/A,Thunderstorm,Overcast,350,2012-10-26 13:35:00
8:55 AM,48.2,48.2,100,30.19,5.0,NNW,8.1,-,N/A,Thunderstorm,Overcast,340,2012-10-26 13:55:00
9:15 AM,48.2,46.4,93,30.19,7.0,North,6.9,-,N/A,,Overcast,350,2012-10-26 14:15:00
9:55 AM,50.0,46.4,87,30.20,8.0,North,9.2,-,N/A,,Overcast,350,2012-10-26 14:55:00
10:15 AM,51.8,46.4,82,30.20,8.0,North,8.1,17.3,N/A,,Overcast,360,2012-10-26 15:15:00
10:35 AM,51.8,46.4,82,30.21,9.0,North,9.2,-,N/A,,Overcast,360,2012-10-26 15:35:00
10:55 AM,51.8,46.4,82,30.22,9.0,North,10.4,-,N/A,,Overcast,350,2012-10-26 15:55:00
11:15 AM,51.8,46.4,82,30.22,9.0,North,8.1,-,N/A,,Overcast,360,2012-10-26 16:15:00
11:35 AM,51.8,44.6,76,30.23,9.0,North,8.1,-,N/A,,Overcast,10,2012-10-26 16:35:00
11:55 AM,51.8,44.6,76,30.24,9.0,North,12.7,16.1,N/A,,Overcast,350,2012-10-26 16:55:00
12:15 PM,51.8,44.6,76,30.24,9.0,NNW,13.8,-,N/A,,Overcast,340,2012-10-26 17:15:00
12:35 PM,51.8,44.6,76,30.24,9.0,North,9.2,-,N/A,,Overcast,350,2012-10-26 17:35:00
12:55 PM,53.6,44.6,72,30.24,10.0,North,9.2,-,N/A,,Overcast,350,2012-10-26 17:55:00
1:15 PM,53.6,44.6,72,30.24,9.0,North,10.4,-,N/A,,Overcast,350,2012-10-26 18:15:00
1:35 PM,53.6,44.6,72,30.23,8.0,North,13.8,18.4,N/A,,Overcast,350,2012-10-26 18:35:00
1:55 PM,55.4,44.6,67,30.23,9.0,North,13.8,-,N/A,,Overcast,360,2012-10-26 18:55:00
2:15 PM,55.4,44.6,67,30.22,9.0,North,10.4,18.4,N/A,,Overcast,360,2012-10-26 19:15:00
2:35 PM,55.4,44.6,67,30.21,9.0,North,11.5,18.4,N/A,,Overcast,360,2012-10-26 19:35:00
2:55 PM,55.4,44.6,67,30.21,9.0,North,11.5,-,N/A,,Overcast,360,2012-10-26 19:55:00
3:15 PM,55.4,44.6,67,30.21,10.0,NNW,13.8,-,N/A,,Overcast,340,2012-10-26 20:15:00
3:35 PM,55.4,44.6,67,30.21,9.0,NNW,11.5,17.3,N/A,,Overcast,340,2012-10-26 20:35:00
3:55 PM,55.4,42.8,63,30.21,9.0,NNW,13.8,18.4,N/A,,Overcast,340,2012-10-26 20:55:00
4:15 PM,55.4,42.8,63,30.22,10.0,North,12.7,-,N/A,,Overcast,350,2012-10-26 21:15:00
4:35 PM,55.4,42.8,63,30.21,8.0,North,15.0,-,N/A,,Overcast,350,2012-10-26 21:35:00
4:55 PM,55.4,42.8,63,30.21,9.0,North,10.4,18.4,N/A,,Overcast,350,2012-10-26 21:55:00
5:15 PM,55.4,42.8,63,30.22,8.0,North,9.2,-,N/A,,Mostly Cloudy,350,2012-10-26 22:15:00
5:35 PM,55.4,42.8,63,30.22,9.0,NNW,10.4,-,N/A,,Mostly Cloudy,330,2012-10-26 22:35:00
5:55 PM,53.6,41.0,62,30.22,9.0,NNW,12.7,-,N/A,,Overcast,330,2012-10-26 22:55:00
6:15 PM,53.6,41.0,62,30.22,10.0,North,9.2,-,N/A,,Overcast,350,2012-10-26 23:15:00
6:35 PM,53.6,41.0,62,30.23,9.0,NNW,9.2,-,N/A,,Overcast,340,2012-10-26 23:35:00
6:55 PM,53.6,39.2,58,30.24,9.0,North,9.2,-,N/A,,Overcast,350,2012-10-26 23:55:00
7:15 PM,51.8,39.2,62,30.25,10.0,NNW,9.2,-,N/A,,Overcast,340,2012-10-27 00:15:00
7:35 PM,51.8,39.2,62,30.26,10.0,North,9.2,-,N/A,,Partly Cloudy,350,2012-10-27 00:35:00
7:55 PM,50.0,39.2,66,30.26,10.0,North,8.1,-,N/A,,Clear,350,2012-10-27 00:55:00
8:15 PM,50.0,39.2,66,30.27,10.0,North,8.1,-,N/A,,Clear,360,2012-10-27 01:15:00
8:35 PM,50.0,37.4,62,30.28,10.0,North,6.9,-,N/A,,Clear,350,2012-10-27 01:35:00
8:55 PM,48.2,37.4,66,30.28,10.0,North,5.8,-,N/A,,Clear,360,2012-10-27 01:55:00
9:15 PM,48.2,37.4,66,30.28,8.0,North,9.2,-,N/A,,Clear,350,2012-10-27 02:15:00
9:35 PM,48.2,37.4,66,30.29,9.0,North,6.9,-,N/A,,Clear,360,2012-10-27 02:35:00
9:55 PM,48.2,37.4,66,30.30,9.0,North,6.9,-,N/A,,Clear,350,2012-10-27 02:55:00
10:15 PM,48.2,37.4,66,30.30,9.0,North,5.8,-,N/A,,Clear,350,2012-10-27 03:15:00
10:35 PM,46.4,37.4,71,30.30,10.0,NNW,8.1,-,N/A,,Clear,340,2012-10-27 03:35:00
10:55 PM,46.4,35.6,66,30.30,9.0,NNW,6.9,-,N/A,,Clear,340,2012-10-27 03:55:00
11:15 PM,46.4,35.6,66,30.30,9.0,North,8.1,-,N/A,,Clear,350,2012-10-27 04:15:00
11:35 PM,46.4,35.6,66,30.29,9.0,North,10.4,-,N/A,,Clear,360,2012-10-27 04:35:00
11:55 PM,46.4,35.6,66,30.29,8.0,North,10.4,-,N/A,,Clear,360,2012-10-27 04:55:00